GW5798 Weather Reports


Display with metric or nautical units.
time (UTC)temp
F
wind
direction
speed
MPH
gust
MPH
rain 1hr
in
rain 24hr
in
rain mn
in
humidity
%
barometer
mb
20260505223042 83 87 3.0 9.0 0.00 0.00 0.00 74 1007.1
20260505222032 83 247 2.0 6.0 0.00 0.00 0.00 73 1007.1
20260505221022 83 220 2.0 6.0 0.00 0.00 0.00 73 1007.1
20260505220113 83 127 2.0 8.0 0.00 0.00 0.00 73 1007.4
20260505215103 83 103 1.0 7.0 0.00 0.00 0.00 73 1007.3
20260505214113 84 166 2.0 7.0 0.00 0.00 0.00 71 1007.6
20260505213043 84 190 1.0 4.0 0.00 0.00 0.00 72 1007.5
20260505212033 83 118 3.0 9.0 0.00 0.00 0.00 73 1007.8
20260505211023 83 349 2.0 8.0 0.00 0.00 0.00 73 1008.0
20260505210134 83 137 3.0 7.0 0.00 0.00 0.00 73 1008.0
20260505205104 83 146 2.0 9.0 0.00 0.00 0.00 73 1008.3
20260505204054 83 94 2.0 10.0 0.00 0.00 0.00 73 1008.4
20260505203044 84 123 1.0 4.0 0.00 0.00 0.00 72 1008.4
20260505202054 84 143 2.0 7.0 0.00 0.00 0.00 72 1008.6
20260505201024 85 187 2.0 3.0 0.00 0.00 0.00 72 1008.7
20260505200115 84 315 1.0 9.0 0.00 0.00 0.00 73 1008.8
20260505195105 84 136 2.0 8.0 0.00 0.00 0.00 73 1008.9
20260505194115 83 125 2.0 4.0 0.00 0.00 0.00 74 1009.1
20260505193045 82 200 2.0 8.0 0.00 0.00 0.00 75 1009.0
20260505192035 83 130 2.0 8.0 0.00 0.00 0.00 74 1009.2
20260505191025 83 150 2.0 6.0 0.00 0.00 0.00 75 1009.3
20260505190115 83 174 2.0 3.0 0.00 0.00 0.00 74 1009.1
20260505185106 83 203 1.0 7.0 0.00 0.00 0.00 75 1009.2
20260505184055 82 94 2.0 7.0 0.00 0.00 0.00 75 1009.4
20260505183046 82 171 1.0 10.0 0.00 0.00 0.00 76 1009.5
20260505182035 82 145 2.0 6.0 0.00 0.00 0.00 77 1009.5
20260505181025 82 105 1.0 2.0 0.00 0.00 0.00 77 1009.6
20260505180016 81 229 1.0 6.0 0.00 0.00 0.00 78 1009.8
20260505175107 80 138 1.0 4.0 0.00 0.00 0.00 80 1010.0
20260505174056 80 125 1.0 6.0 0.00 0.00 0.00 78 1009.9
20260505173047 80 116 1.0 7.0 0.00 0.00 0.00 79 1009.9
20260505172116 80 155 2.0 6.0 0.00 0.00 0.00 78 1009.9
20260505171026 80 191 1.0 4.0 0.00 0.00 0.00 79 1009.9
20260505170016 80 122 1.0 4.0 0.00 0.00 0.00 80 1010.1
20260505165127 80 293 1.0 7.0 0.00 0.00 0.00 81 1010.1
20260505164137 80 310 1.0 3.0 0.00 0.00 0.00 81 1010.0
20260505163047 79 109 3.0 7.0 0.00 0.00 0.00 82 1009.9
20260505162037 79 146 1.0 3.0 0.00 0.00 0.00 82 1010.1
20260505161033 79 152 2.0 6.0 0.00 0.00 0.00 82 1009.9
20260505153108 77 107 2.0 6.0 0.00 0.00 0.00 86 1009.6
20260505152038 76 198 0.0 2.0 0.00 0.00 0.00 91 1009.6
20260505151028 75 143 1.0 3.0 0.00 0.00 0.00 90 1009.7
20260505124120 72 161 2.0 3.0 0.00 0.00 0.00 92 1009.2
20260505123050 72 163 1.0 2.0 0.00 0.00 0.00 93 1009.3
20260505122040 71 190 1.0 3.0 0.00 0.00 0.00 93 1009.2
20260505121030 71 239 1.0 3.0 0.00 0.00 0.00 93 1009.0
20260505120040 71 179 1.0 2.0 0.00 0.00 0.00 93 1008.9
20260505115111 71 180 1.0 3.0 0.00 0.00 0.00 93 1008.7
20260505114101 70 170 1.0 3.0 0.00 0.00 0.00 93 1008.9
20260505113051 70 142 1.0 3.0 0.00 0.00 0.00 93 1009.0
20260505112041 71 209 1.0 6.0 0.00 0.00 0.00 92 1008.9
20260505111031 71 102 1.0 4.0 0.00 0.00 0.00 92 1008.9
20260505102043 70 136 1.0 4.0 0.00 0.00 0.00 92 1008.9
20260505101031 70 173 1.0 3.0 0.00 0.00 0.00 92 1008.8
20260505100022 70 217 1.0 2.0 0.00 0.00 0.00 92 1009.0
20260505095112 70 224 0.0 1.0 0.00 0.00 0.00 91 1009.1
20260505094123 70 171 0.0 2.0 0.00 0.00 0.00 91 1008.9
20260505093052 70 196 1.0 2.0 0.00 0.00 0.00 91 1009.0
20260505092042 70 183 1.0 3.0 0.00 0.00 0.00 91 1009.1
20260505091032 70 135 1.0 3.0 0.00 0.00 0.00 90 1009.3
20260505090022 70 163 1.0 3.0 0.00 0.00 0.00 90 1009.3
20260505085113 71 176 1.0 4.0 0.00 0.00 0.00 90 1009.4
20260505084103 70 149 2.0 3.0 0.00 0.00 0.00 90 1009.4
20260505083053 70 169 1.0 3.0 0.00 0.00 0.00 90 1009.5
20260505082043 70 146 1.0 2.0 0.00 0.00 0.00 90 1009.7
20260505081033 70 123 0.0 2.0 0.00 0.00 0.00 90 1009.6
20260505080103 70 176 1.0 3.0 0.00 0.00 0.00 89 1009.6
20260505075114 70 137 1.0 4.0 0.00 0.00 0.00 88 1009.8
20260505074104 70 132 1.0 4.0 0.00 0.00 0.00 88 1009.8
20260505073054 71 153 1.0 7.0 0.00 0.00 0.00 88 1009.8
20260505072104 70 174 1.0 4.0 0.00 0.00 0.00 88 1009.8
20260505071034 70 143 1.0 6.0 0.00 0.00 0.00 87 1010.0
20260505070024 71 137 1.0 4.0 0.00 0.00 0.00 87 1010.1
20260505065114 71 127 1.0 6.0 0.00 0.00 0.00 86 1010.3
20260505064105 71 132 1.0 2.0 0.00 0.00 0.00 86 1010.4
20260505063054 71 160 1.0 4.0 0.00 0.00 0.00 85 1010.4
20260505062105 71 188 2.0 6.0 0.00 0.00 0.00 85 1010.6
20260505061034 71 189 1.0 4.0 0.00 0.00 0.00 85 1010.8
20260505060044 71 98 2.0 9.0 0.00 0.00 0.00 85 1010.7
20260505055116 71 150 2.0 7.0 0.00 0.00 0.00 84 1010.6
20260505054105 71 140 1.0 4.0 0.00 0.00 0.00 84 1010.6
20260505053055 71 192 1.0 4.0 0.00 0.00 0.00 84 1010.8
20260505052045 71 204 1.0 3.0 0.00 0.00 0.00 83 1011.2
20260505051035 71 151 1.0 3.0 0.00 0.00 0.00 83 1011.1
20260505041056 72 108 1.0 3.0 0.00 0.00 0.00 80 1011.1
20260505040026 72 144 2.0 7.0 0.00 0.00 0.00 80 1011.4
20260505035157 72 90 2.0 6.0 0.00 0.00 0.00 80 1011.2
20260505034107 72 98 2.0 7.0 0.00 0.00 0.00 79 1011.5
20260505033057 72 126 2.0 4.0 0.00 0.00 0.00 79 1011.5
20260505032047 72 166 1.0 7.0 0.00 0.00 0.00 79 1011.4
20260505031037 73 173 2.0 6.0 0.00 0.00 0.00 78 1011.4
20260505030027 73 154 2.0 13.0 0.00 0.00 0.00 78 1011.3
20260505025017 73 138 2.0 6.0 0.00 0.00 0.00 77 1011.4
20260505024107 73 149 2.0 6.0 0.00 0.00 0.00 76 1011.4
20260505023057 74 147 2.0 8.0 0.00 0.00 0.00 76 1011.4
20260505022048 74 115 3.0 7.0 0.00 0.00 0.00 75 1011.3
20260505021037 74 113 2.0 8.0 0.00 0.00 0.00 75 1011.3
20260505020027 74 174 2.0 6.0 0.00 0.00 0.00 74 1011.1
20260505015017 75 215 2.0 6.0 0.00 0.00 0.00 73 1011.1
20260505014108 75 143 2.0 4.0 0.00 0.00 0.00 72 1010.9
20260505013058 75 149 2.0 4.0 0.00 0.00 0.00 72 1010.7
20260505012048 75 165 2.0 8.0 0.00 0.00 0.00 72 1010.6
20260505011038 75 158 1.0 4.0 0.00 0.00 0.00 71 1010.7
20260505010028 76 218 2.0 8.0 0.00 0.00 0.00 70 1010.7
20260505005018 77 306 3.0 9.0 0.00 0.00 0.00 69 1010.7
20260505004109 77 182 4.0 9.0 0.00 0.00 0.00 68 1010.6
20260505003059 77 225 2.0 9.0 0.00 0.00 0.00 69 1010.6
20260505002049 77 124 1.0 4.0 0.00 0.00 0.00 69 1010.5
20260505001039 77 165 1.0 4.0 0.00 0.00 0.00 69 1010.6
20260505000029 78 158 2.0 8.0 0.00 0.00 0.00 68 1010.7
20260504235019 78 107 2.0 4.0 0.00 0.00 0.00 67 1010.7
20260504234110 78 150 1.0 6.0 0.00 0.00 0.00 66 1010.8
20260504233100 78 132 1.0 4.0 0.00 0.00 0.00 65 1011.0
20260504232050 78 142 3.0 8.0 0.00 0.00 0.00 64 1011.1
20260504231040 78 242 2.0 6.0 0.00 0.00 0.00 64 1011.1
20260504230050 79 141 2.0 4.0 0.00 0.00 0.00 63 1011.3
20260504225040 79 115 3.0 8.0 0.00 0.00 0.00 63 1011.3
20260504224111 79 148 3.0 7.0 0.00 0.00 0.00 63 1011.4